Location: *
(46.1866°S, 178.5290°W)
Time: 06:03:59
(UTC+00:00)

Cosmos 2266 Rocket - Pass Details

Date: 19 May 2021
Orbit: 933 x 1009 km, 82.9° (Epoch: 14 June)

Event Time Altitude Azimuth Distance (km) Brightness Sun altitude
Rises 06:37:12 0° 353° (N) 3,588 7.1 -22.1°
Reaches altitude 10° 06:39:39 10° 352° (N) 2,657 6.4 -22.5°
Maximum altitude 06:45:44 88° 263° (W) 966 3.9 -23.6°
Drops below altitude 10° 06:52:00 10° 172° (S) 2,731 6.2 -24.7°
Sets 06:54:33 0° 171° (S) 3,695 6.9 -25.1°
